Weather History for KAAF - August, 2013

Change the Weather History Date:

Tuesday, August 13, 2013

  Actual Average Record
Temperature  
Mean Temperature 84 °F 82 °F  
Max Temperature 92 °F 90 °F 97 °F (2011)
Min Temperature 75 °F 74 °F 68 °F (1931)
Degree Days  
Heating Degree Days 0    
Month to date heating degree days 0  
Since 1 June heating degree days 0  
Since 1 July heating degree days 0  
Cooling Degree Days 19    
Month to date cooling degree days 246  
Year to date cooling degree days 1625  
Since 1 June cooling degree days 1244  
Growing Degree Days 33 (Base 50)    
Moisture  
Dew Point 74 °F    
Average Humidity 75    
Maximum Humidity 94    
Minimum Humidity 56    
Precipitation  
Precipitation T in 0.26 in 3.23 in (1992)
Month to date precipitation 1.19 3.55  
Year to date precipitation 36.66 35.27  
Sea Level Pressure  
Sea Level Pressure 30.01 in    
Wind  
Wind Speed 4 mph (West)    
Max Wind Speed 15 mph    
Max Gust Speed 18 mph    
Visibility 10 miles    
Events      
T = Trace of Precipitation, MM = Missing Value Source: NWS Daily Summary

Daily Weather History Graph

Daily Weather History Graph

Search for Another Location

Airport or City:

Trip Planner

Search our weather history database for the weather conditions in past years. The results will help you decide how hot, cold, wet, or windy it might be!

Date:

Astronomy

Aug. 13, 2013 Rise Set
Actual Time 7:06 AM EDT 8:22 PM EDT
Civil Twilight 6:41 AM EDT 8:47 PM EDT
Nautical Twilight 6:11 AM EDT 9:17 PM EDT
Astronomical Twilight 5:40 AM EDT 9:48 PM EDT
Moon 1:25 PM EDT (8/13) No Moon Set
Length of Visible Light 14h 05m
Length of Day
13h 15m
Waxing Crescent, 41% of the Moon is Illuminated
Aug 13
Waxing Crescent
Aug 14
First Quarter
Aug 20
Full
Aug 28
Last Quarter
Sep 5
New

Hourly Weather History & Observations

Time (EDT) Temp. Heat Index Dew Point Humidity Pressure Visibility Wind Dir Wind Speed Gust Speed Precip Events Conditions
12:53 AM 79.0 °F - 73.0 °F 82% 30.05 in 10.0 mi Calm Calm - N/A   Clear
1:53 AM 77.0 °F - 73.0 °F 88% 30.03 in 10.0 mi NW 3.5 mph - N/A   Clear
2:53 AM 77.0 °F - 73.0 °F 88% 30.02 in 10.0 mi Calm Calm - N/A   Clear
3:53 AM 75.9 °F - 72.0 °F 87% 30.01 in 10.0 mi Calm Calm - N/A   Clear
4:53 AM 75.9 °F - 73.0 °F 91% 30.01 in 10.0 mi Calm Calm - N/A   Clear
5:53 AM 75.0 °F - 72.0 °F 90% 30.01 in 10.0 mi Calm Calm - N/A   Clear
6:53 AM 75.0 °F - 72.0 °F 90% 30.02 in 10.0 mi Calm Calm - N/A   Clear
7:53 AM 77.0 °F - 73.9 °F 90% 30.03 in 10.0 mi Calm Calm - N/A   Clear
8:53 AM 84.9 °F 95.3 °F 77.0 °F 77% 30.03 in 10.0 mi WNW 3.5 mph - N/A   Clear
9:53 AM 87.1 °F 97.3 °F 75.9 °F 69% 30.03 in 10.0 mi West 5.8 mph - N/A   Scattered Clouds
10:11 AM 87.8 °F 99.7 °F 77.0 °F 70% 30.03 in 10.0 mi SW 5.8 mph - N/A   Mostly Cloudy
10:34 AM 89.6 °F 99.8 °F 75.2 °F 62% 30.02 in 10.0 mi WSW 6.9 mph - N/A   Scattered Clouds
10:53 AM 89.1 °F 98.0 °F 73.9 °F 61% 30.03 in 10.0 mi Variable 4.6 mph - N/A   Clear
11:53 AM 91.0 °F 104.2 °F 77.0 °F 63% 30.03 in 10.0 mi WSW 10.4 mph - N/A   Scattered Clouds
12:53 PM 89.1 °F 98.0 °F 73.9 °F 61% 30.03 in 10.0 mi Variable 3.5 mph - 0.00 in   Clear
1:53 PM 91.0 °F 101.6 °F 75.0 °F 59% 30.03 in 10.0 mi NNW 8.1 mph - N/A   Clear
2:53 PM 91.0 °F 99.3 °F 73.0 °F 55% 30.01 in 10.0 mi WNW 8.1 mph - N/A   Scattered Clouds
3:53 PM 90.0 °F 100.2 °F 75.0 °F 61% 29.99 in 10.0 mi NNW 6.9 mph - N/A   Partly Cloudy
4:53 PM 89.1 °F 99.1 °F 75.0 °F 63% 29.96 in 10.0 mi WSW 5.8 mph - N/A   Clear
5:53 PM 89.1 °F 100.2 °F 75.9 °F 65% 29.95 in 10.0 mi West 8.1 mph - N/A   Clear
6:53 PM 88.0 °F 97.5 °F 75.0 °F 65% 29.96 in 10.0 mi West 9.2 mph - N/A   Partly Cloudy
7:53 PM 84.9 °F 94.1 °F 75.9 °F 74% 29.96 in 10.0 mi West 5.8 mph - N/A   Clear
8:53 PM 82.9 °F 90.2 °F 75.0 °F 77% 29.96 in 10.0 mi West 6.9 mph - N/A   Clear
9:53 PM 81.0 °F 86.7 °F 75.0 °F 82% 29.98 in 10.0 mi NW 3.5 mph - N/A   Clear
10:53 PM 81.0 °F 86.7 °F 75.0 °F 82% 29.98 in 10.0 mi Calm Calm - N/A   Clear
11:53 PM 80.1 °F 84.5 °F 73.9 °F 81% 29.99 in 10.0 mi Calm Calm - N/A   Clear